{"data":{"norad_id":57741,"epoch":"2026-09-19T03:08:05.441856Z","epoch_age_seconds":266814,"freshness":"STALE","line1":"1 57741U 23131K   26262.13061854  .00000820  00000+0  39324-4 0  9994","line2":"2 57741  43.0013 159.7547 0001136 276.3051  83.7671 15.27572094169505","mean_motion":15.27572094,"eccentricity":0.0001136,"inclination_deg":43.0013,"raan_deg":159.7547,"arg_perigee_deg":276.3051,"mean_anomaly_deg":83.7671,"bstar":3.9324e-5,"rev_number":16950,"period_min":94.267236594334,"perigee_km":482.2933361201,"apogee_km":483.85220297975,"semimajor_km":6861.2097695499,"source":"CELESTRAK","updated_at":"2026-09-21T09:00:33.680206Z"}}